Location: Altleiningen
(49.5078°N, 8.0741°E)
Time: 21:05:27
(UTC+00:00)

Cosmos 1844 Rocket - Pass Details

Date: 14 June 2025
Orbit: 822 x 844 km, 71.0° (Epoch: 16 July)

Event Time Altitude Azimuth Distance (km) Brightness Sun altitude
Exits shadow 22:54:56 26° 190° (S) 1,601 3.6 -16.8°
Maximum altitude 22:58:09 68° 114° (ESE) 910 2.7 -16.9°
Drops below altitude 10° 23:03:47 10° 33° (NNE) 2,475 5.9 -17.0°
Sets 23:06:15 0° 31° (NNE) 3,415 6.8 -17.0°
